Location: Stonelick Lake State Park
(39.2170°N, 84.0850°W)
Time: 19:06:02
(UTC-04:00)

Amateur Radio Satellites - All Passes

Search period start: 04 May 2016 18:36
Search period end: 05 May 2016 18:36
Location: Stonelick Lake State Park, 39.2170°N, 84.0850°W

Satellite Date Start Highest point End Downlink Frequencies (MHz)
Time Altitude Azimuth
AUBIESAT-1 04 May 18:40:49 18:44:03 19° 61° (ENE) 18:47:15 437.475
KKS-1 04 May 18:45:21 18:47:34 14° 297° (WNW) 18:49:45 437.445
STARS 04 May 18:55:51 18:58:55 19° 294° (WNW) 19:01:58 437.465
MOZHAYETS 4 04 May 19:02:47 19:05:08 14° 296° (WNW) 19:07:29
CUBESAT XI-V 04 May 19:14:19 19:19:03 87° 282° (WNW) 19:23:45 437.345
HO-68 04 May 19:17:10 19:21:47 19° 56° (ENE) 19:26:25 435.675
CUTE-I 04 May 19:18:02 19:23:21 75° 258° (WSW) 19:28:41 437.470
DOVE 4 04 May 19:20:28 19:24:50 28° 68° (ENE) 19:29:17 437.250
BEESAT 3 04 May 19:23:10 19:26:57 45° 305° (NW) 19:30:47 437.485
Cosmos 2491 04 May 19:30:38 19:39:13 59° 269° (W) 19:47:43 435.465 / 435.565
GOMX 1 04 May 19:33:42 19:38:44 73° 75° (ENE) 19:44:05 467.674
BEESAT 2 04 May 19:34:13 19:38:09 60° 303° (WNW) 19:42:07 435.950
YUBILEINY 04 May 19:39:08 19:47:51 76° 93° (E) 19:56:32 435.215
LilacSat-2 04 May 19:39:43 19:43:20 37° 262° (W) 19:46:58 437.200
JUGNU 04 May 19:43:53 19:45:14 11° 180° (S) 19:46:36 437.505
STRAND 1 04 May 19:44:27 19:47:35 16° 92° (E) 19:50:41 437.568
CUTE 1.7 + AOD 2 04 May 19:47:15 19:49:02 13° 65° (ENE) 19:50:50 437.475
AIST 2 04 May 19:47:56 19:49:03 11° 108° (ESE) 19:50:11 435.215
NOAA 18 04 May 19:48:46 19:53:33 30° 263° (W) 19:58:21 137.9125
CINEMA 3 04 May 19:50:09 19:53:32 18° 65° (ENE) 19:56:54 145.822/145.860
NOAA 15 04 May 19:55:19 19:59:22 22° 266° (W) 20:03:28 137.62
M-CUBED/EXP-1 PRIME 04 May 19:56:37 20:01:17 60° 255° (WSW) 20:05:54 437.505
Cosmos 2504 04 May 19:59:16 20:04:33 22° 83° (E) 20:09:46 435.465 / 435.565
Cubesat XI-IV 04 May 20:04:06 20:08:38 28° 264° (W) 20:13:13 437.490
SEEDS 04 May 20:09:52 20:12:28 16° 66° (ENE) 20:15:04 437.485
COMPASS 1 04 May 20:10:42 20:12:08 12° 64° (ENE) 20:13:34 437.405
BRITE-PL 04 May 20:11:59 20:15:54 24° 268° (W) 20:20:05 437.365/2234.400
AUBIESAT-1 04 May 20:13:42 20:18:11 47° 256° (WSW) 20:22:36 437.475
CUBEBUG 2 04 May 20:24:51 20:26:54 13° 64° (ENE) 20:28:57 437.445
RS-15 04 May 20:32:49 20:40:37 22° 99° (E) 20:48:38 29.354- 29.394
AO-85 04 May 20:33:09 20:35:28 13° 38° (NE) 20:37:41 145.980
AAUSAT CUBESAT 2 04 May 20:37:48 20:40:42 19° 68° (ENE) 20:43:37 437.432
CANX-2 04 May 20:47:47 20:51:59 71° 75° (ENE) 20:56:10 2200.000
SRMSAT 04 May 20:48:28 20:48:47 10° 173° (S) 20:49:05 437.500
DOVE 4 04 May 20:57:42 21:02:20 34° 264° (W) 21:07:09 437.250
HO-68 04 May 21:01:27 21:08:37 85° 253° (WSW) 21:15:50 435.675
GOMX 1 04 May 21:15:14 21:17:24 13° 272° (W) 21:19:38 467.674
Oscar 11 04 May 21:15:28 21:18:44 21° 68° (ENE) 21:22:00 145.826/435.025
PRISM 04 May 21:19:28 21:23:04 27° 97° (E) 21:26:40 437.425
CUTE 1.7 + AOD 2 04 May 21:20:17 21:24:24 54° 260° (W) 21:28:32 437.475
STRAND 1 04 May 21:22:05 21:27:05 56° 287° (WNW) 21:32:04 437.568
AIST 2 04 May 21:22:54 21:27:00 62° 303° (WNW) 21:31:06 435.215
CINEMA 3 04 May 21:25:21 21:30:13 52° 261° (W) 21:35:07 145.822/145.860
FUNcube-1 04 May 21:29:39 21:33:22 26° 70° (ENE) 21:37:03 145.935
DELFI C3 04 May 21:34:37 21:36:54 15° 67° (ENE) 21:39:13 145.870
YUBILEINY 04 May 21:39:06 21:45:31 22° 294° (WNW) 21:51:58 435.215
COMPASS 1 04 May 21:43:08 21:47:11 57° 260° (W) 21:51:16 437.405
SEEDS 04 May 21:43:56 21:47:51 39° 262° (W) 21:51:46 437.485
UWE-3 04 May 21:46:20 21:50:54 63° 75° (ENE) 21:55:25 435.000/436.395/437.385
Cosmos 2504 04 May 21:50:10 21:57:18 58° 281° (W) 22:04:22 435.465 / 435.565
CUBEBUG 2 04 May 21:58:15 22:02:58 68° 259° (WSW) 22:07:37 437.445
AO-85 04 May 22:12:01 22:16:48 86° 59° (ENE) 22:21:05 145.980
ZACube-1 04 May 22:12:10 22:16:42 82° 75° (ENE) 22:21:09 437.345
AAUSAT CUBESAT 2 04 May 22:12:17 22:15:58 32° 263° (W) 22:19:41 437.432
SRMSAT 04 May 22:35:41 22:37:00 11° 184° (S) 22:38:19 437.500
RS-15 04 May 22:40:00 22:51:17 89° 296° (WNW) 23:03:17 29.354- 29.394
Oscar 11 04 May 22:50:50 22:54:40 31° 263° (W) 22:58:31 145.826/435.025
HO-68 04 May 22:54:07 22:57:14 13° 271° (W) 23:00:23 435.675
PRISM 04 May 22:54:57 22:58:14 23° 292° (WNW) 23:01:31 437.425
HUMSAT D 04 May 22:56:49 23:00:58 63° 76° (ENE) 23:05:07 437.325/437.525
FUNcube-1 04 May 23:05:40 23:09:31 27° 264° (W) 23:13:19 145.935
DELFI C3 04 May 23:07:47 23:11:28 37° 262° (W) 23:15:10 145.870
ANTELSAT 04 May 23:07:48 23:10:51 19° 93° (E) 23:13:52 437.575/2403.000
AISAT 04 May 23:12:28 23:14:51 14° 64° (ENE) 23:17:16 437.250
UWE-3 04 May 23:26:01 23:27:42 12° 270° (W) 23:29:24 435.000/436.395/437.385
GONETS M04 04 May 23:33:04 23:37:19 15° 76° (ENE) 23:41:34
PCSat 04 May 23:34:23 23:36:20 12° 40° (NE) 23:38:17 145.827
ESTCUBE 1 04 May 23:38:12 23:42:15 35° 71° (ENE) 23:46:19 437.505/2401.250
CUBEBUG 1 04 May 23:41:31 23:45:10 26° 69° (ENE) 23:48:51 437.445
50 SAT 04 May 23:56:46 00:00:12 41° 73° (ENE) 00:03:39 437.505
UNISAT 6 05 May 00:01:15 00:05:35 80° 103° (ESE) 00:09:49 437.425
DX 1 05 May 00:03:23 00:07:29 42° 72° (ENE) 00:11:37 434.975-435.025
UKube-1 05 May 00:05:50 00:09:47 36° 71° (ENE) 00:13:45 .
DUCHIFAT 1 05 May 00:09:35 00:12:05 15° 93° (E) 00:14:33 145.980
QB50P2 05 May 00:12:38 00:15:44 20° 94° (E) 00:18:49 145.880/145.840
VELOX 1 05 May 00:14:01 00:18:23 62° 74° (ENE) 00:22:48 145.980
POLYITAN 1 05 May 00:14:48 00:17:56 20° 94° (E) 00:21:02 437.675
POPSAT HIP 1 05 May 00:16:45 00:19:55 20° 94° (E) 00:23:04 437.405
TIGRISAT 05 May 00:18:02 00:22:19 70° 284° (WNW) 00:26:32 435.000
QB50P1 05 May 00:19:37 00:22:58 22° 95° (E) 00:26:16 145.935-145.965
SPROUT 05 May 00:31:31 00:35:25 34° 71° (ENE) 00:39:20 437.525
BUGSAT 1 05 May 00:41:50 00:44:33 17° 93° (E) 00:47:14 437.445
ANTELSAT 05 May 00:43:47 00:47:40 34° 290° (WNW) 00:51:30 437.575/2403.000
AISAT 05 May 00:46:31 00:50:52 53° 260° (W) 00:55:15 437.250
NANOSAT C BR1 05 May 00:52:32 00:56:40 51° 100° (E) 01:00:46 145.865
RS-15 05 May 00:55:44 01:05:36 31° 327° (NNW) 01:15:56 29.354- 29.394
AIST 1 05 May 00:57:24 01:01:38 61° 94° (E) 01:05:57
TISAT 1 05 May 00:57:55 01:01:02 20° 67° (ENE) 01:04:10 437.305
O/OREOS (USA 219) 05 May 01:08:25 01:12:56 66° 67° (ENE) 01:17:23 437.305
PCSat 05 May 01:15:22 01:20:47 67° 60° (ENE) 01:26:10 145.827
ESTCUBE 1 05 May 01:15:48 01:19:08 20° 266° (W) 01:22:29 437.505/2401.250
CUBEBUG 1 05 May 01:17:41 01:21:22 26° 264° (W) 01:25:05 437.445
GONETS M04 05 May 01:23:48 01:32:38 82° 95° (E) 01:41:30
CUSAT 1 05 May 01:26:50 01:32:38 24° 69° (ENE) 01:38:47 437.405
50 SAT 05 May 01:33:05 01:34:10 11° 268° (W) 01:35:16 437.505
JAS-2 05 May 01:35:53 01:42:28 29° 92° (E) 01:48:55 435.910
DX 1 05 May 01:41:07 01:43:51 16° 267° (W) 01:46:36 434.975-435.025
UKube-1 05 May 01:42:54 01:45:56 18° 266° (W) 01:48:57 .
DUCHIFAT 1 05 May 01:44:00 01:47:57 40° 288° (WNW) 01:51:52 145.980
QB50P2 05 May 01:47:49 01:51:35 32° 290° (WNW) 01:55:20 145.880/145.840
Cosmos 2499 05 May 01:49:18 01:56:16 64° 93° (E) 02:03:17 435.465 / 435.565
POLYITAN 1 05 May 01:50:02 01:53:46 31° 290° (WNW) 01:57:30 437.675
POPSAT HIP 1 05 May 01:52:00 01:55:44 31° 290° (WNW) 01:59:26 437.405
VELOX 1 05 May 01:53:56 01:55:15 11° 269° (W) 01:56:35 145.980
QB50P1 05 May 01:55:05 01:58:43 28° 290° (WNW) 02:02:18 145.935-145.965
ITUPSAT 1 05 May 01:58:26 02:01:41 19° 65° (ENE) 02:04:55 437.325
SWISSCUBE 05 May 02:05:54 02:09:43 25° 67° (ENE) 02:13:32 437.505
SPROUT 05 May 02:08:19 02:11:26 19° 266° (W) 02:14:35 437.525
BUGSAT 1 05 May 02:16:12 02:20:03 36° 289° (WNW) 02:23:50 437.445
DANDE 05 May 02:29:33 02:35:46 34° 74° (ENE) 02:42:58 436.750
NANOSAT C BR1 05 May 02:29:56 02:31:57 13° 296° (WNW) 02:33:57 145.865
TISAT 1 05 May 02:32:38 02:36:28 33° 263° (W) 02:40:20 437.305
BEESAT 05 May 02:37:56 02:42:29 46° 72° (ENE) 02:47:02 436.000
AIST 1 05 May 02:38:40 02:39:41 11° 291° (WNW) 02:40:42
Oscar 19 05 May 02:46:07 02:51:11 51° 100° (E) 02:56:13 437.125/150
O/OREOS (USA 219) 05 May 02:50:51 02:51:41 10° 263° (W) 02:52:30 437.305
Gurwin Techsat 1B 05 May 02:59:58 03:04:29 28° 96° (E) 03:08:59 435.225
PCSat 05 May 03:00:28 03:03:33 15° 256° (WSW) 03:06:38 145.827
CUSAT 1 05 May 03:07:46 03:15:16 75° 264° (W) 03:23:20 437.405
RS-15 05 May 03:15:44 03:23:42 19° 2° (N) 03:31:51 29.354- 29.394
JAS-2 05 May 03:20:04 03:27:46 60° 289° (WNW) 03:35:20 435.910
GONETS M04 05 May 03:24:16 03:30:30 21° 295° (WNW) 03:36:45
ITUPSAT 1 05 May 03:34:35 03:39:09 46° 260° (W) 03:43:44 437.325
BEESAT 3 05 May 03:41:17 03:45:13 69° 57° (ENE) 03:49:08 437.485
SWISSCUBE 05 May 03:43:04 03:47:20 33° 263° (W) 03:51:38 437.505
Cosmos 2499 05 May 03:44:58 03:49:58 20° 292° (WNW) 03:55:03 435.465 / 435.565
BEESAT 2 05 May 03:53:16 03:57:12 53° 56° (NE) 04:01:04 435.950
KKS-1 05 May 04:03:52 04:08:08 46° 72° (ENE) 04:12:26 437.445
ITAMSAT 1 05 May 04:09:54 04:14:58 52° 100° (E) 04:20:01 435.822/435.867
DANDE 05 May 04:11:59 04:18:41 49° 266° (W) 04:26:30 436.750
STARS 05 May 04:14:20 04:18:13 30° 69° (ENE) 04:22:06 437.465
BEESAT 05 May 04:17:24 04:20:29 17° 267° (W) 04:23:35 436.000
MOZHAYETS 4 05 May 04:24:37 04:28:59 47° 73° (ENE) 04:33:22
Oscar 19 05 May 04:26:27 04:30:06 20° 296° (WNW) 04:33:44 437.125/150
Gurwin Techsat 1B 05 May 04:39:39 04:44:27 35° 291° (WNW) 04:49:13 435.225
CUSAT 1 05 May 04:52:51 04:56:24 14° 279° (W) 05:00:03 437.405
AO-7 05 May 05:01:22 05:09:26 51° 102° (ESE) 05:17:28 29.400- 29.500
JAS-2 05 May 05:08:20 05:11:13 12° 307° (NW) 05:14:06 435.910
HORYU 2 05 May 05:24:09 05:27:09 18° 94° (E) 05:30:07 437.375
RS-15 05 May 05:30:42 05:41:34 35° 37° (NE) 05:52:28 29.354- 29.394
BEESAT 2 05 May 05:32:59 05:34:34 12° 252° (WSW) 05:36:08 435.950
KKS-1 05 May 05:42:14 05:44:55 16° 267° (W) 05:47:38 437.445
AIST 2 05 May 05:45:11 05:49:18 58° 57° (ENE) 05:53:21 435.215
ITAMSAT 1 05 May 05:50:25 05:54:01 19° 296° (WNW) 05:57:37 435.822/435.867
STARS 05 May 05:51:02 05:54:34 23° 265° (W) 05:58:07 437.465
YUBILEINY 05 May 05:51:02 05:58:51 35° 72° (ENE) 06:06:37 435.215
MOZHAYETS 4 05 May 06:03:42 06:06:24 15° 268° (W) 06:09:06
CUBESAT XI-V 05 May 06:16:17 06:20:52 80° 76° (ENE) 06:25:31 437.345
NOAA 15 05 May 06:31:43 06:35:11 17° 92° (E) 06:38:38 137.62
NOAA 18 05 May 06:32:16 06:35:20 15° 92° (E) 06:38:22 137.9125
Cosmos 2491 05 May 06:34:26 06:42:06 35° 85° (E) 06:49:47 435.465 / 435.565
BRITE-PL 05 May 06:39:44 06:43:05 16° 89° (E) 06:46:22 437.365/2234.400
Cubesat XI-IV 05 May 06:43:22 06:46:11 14° 91° (E) 06:49:00 437.490
AO-7 05 May 06:54:33 07:01:55 37° 300° (WNW) 07:09:18 29.400- 29.500
STRAND 1 05 May 06:59:12 07:03:02 22° 65° (ENE) 07:06:53 437.568
HORYU 2 05 May 06:59:44 07:03:50 39° 289° (WNW) 07:07:55 437.375
SO-50 05 May 07:02:37 07:07:17 47° 116° (ESE) 07:12:01 436.795
ISS 05 May 07:08:13 07:11:26 63° 139° (SE) 07:14:40 145.825
LilacSat-2 05 May 07:14:31 07:17:33 23° 95° (E) 07:20:35 437.200
AIST 2 05 May 07:25:41 07:27:16 12° 252° (WSW) 07:28:50 435.215
CUTE-I 05 May 07:36:13 07:41:22 47° 100° (E) 07:46:29 437.470
GOMX 1 05 May 07:37:29 07:41:58 26° 93° (E) 07:46:14 467.674
Cosmos 2504 05 May 07:42:23 07:49:44 46° 77° (ENE) 07:57:33 435.465 / 435.565
RS-15 05 May 07:43:13 07:55:34 84° 242° (WSW) 08:07:51 29.354- 29.394
YUBILEINY 05 May 07:47:35 07:55:48 49° 271° (W) 08:04:02 435.215
AUBIESAT-1 05 May 07:57:00 07:57:37 10° 95° (E) 07:58:14 437.475
PRISM 05 May 08:08:40 08:11:26 18° 66° (ENE) 08:14:13 437.425
NOAA 15 05 May 08:10:05 08:15:17 56° 288° (WNW) 08:20:28 137.62
NOAA 18 05 May 08:11:01 08:16:26 66° 287° (WNW) 08:21:49 137.9125
BRITE-PL 05 May 08:16:20 08:22:01 68° 286° (WNW) 08:27:30 437.365/2234.400
Cubesat XI-IV 05 May 08:21:25 08:26:42 66° 287° (WNW) 08:31:58 437.490
Cosmos 2491 05 May 08:30:07 08:38:36 50° 284° (WNW) 08:47:08 435.465 / 435.565
HO-68 05 May 08:31:50 08:36:42 19° 92° (E) 08:41:32 435.675
CANX-2 05 May 08:35:35 08:37:35 13° 91° (E) 08:39:34 2200.000
STRAND 1 05 May 08:37:05 08:41:54 43° 261° (W) 08:46:45 437.568
PHONESAT 2.4 05 May 08:37:17 08:38:43 12° 146° (SE) 08:40:08 2401.200-2431.200
SO-50 05 May 08:44:02 08:48:01 24° 314° (NW) 08:51:59 436.795
ISS 05 May 08:45:40 08:48:09 20° 336° (NNW) 08:50:38 145.825
LilacSat-2 05 May 08:48:48 08:51:46 22° 291° (WNW) 08:54:42 437.200
DOVE 4 05 May 08:57:34 09:02:40 78° 102° (ESE) 09:07:26 437.250
CUTE 1.7 + AOD 2 05 May 09:06:33 09:10:06 26° 95° (E) 09:13:40 437.475
M-CUBED/EXP-1 PRIME 05 May 09:12:29 09:16:16 59° 291° (WNW) 09:19:46 437.505
GOMX 1 05 May 09:15:08 09:20:05 37° 290° (WNW) 09:24:48 467.674
CUTE-I 05 May 09:17:07 09:21:03 22° 296° (WNW) 09:25:00 437.470
CINEMA 3 05 May 09:21:43 09:26:02 41° 97° (E) 09:30:08 145.822/145.860
COMPASS 1 05 May 09:27:29 09:30:50 23° 95° (E) 09:34:10 437.405
SEEDS 05 May 09:28:43 09:32:33 34° 97° (E) 09:36:22 437.485
AUBIESAT-1 05 May 09:28:51 09:32:29 45° 292° (WNW) 09:35:52 437.475
Cosmos 2504 05 May 09:36:09 09:42:51 34° 273° (W) 09:49:58 435.465 / 435.565
UWE-3 05 May 09:39:15 09:41:02 12° 91° (E) 09:42:47 435.000/436.395/437.385
PRISM 05 May 09:42:46 09:46:29 34° 262° (W) 09:50:15 437.425
CUBEBUG 2 05 May 09:51:02 09:54:36 25° 95° (E) 09:58:05 437.445
AAUSAT CUBESAT 2 05 May 09:55:11 09:59:05 38° 98° (E) 10:02:58 437.432
RS-15 05 May 09:58:16 10:06:11 20° 262° (W) 10:14:07 29.354- 29.394
ZACube-1 05 May 10:03:05 10:05:36 16° 92° (E) 10:08:07 437.345
ANTELSAT 05 May 10:05:52 10:08:51 17° 66° (ENE) 10:11:49 437.575/2403.000
CANX-2 05 May 10:09:37 10:13:42 48° 286° (WNW) 10:17:45 2200.000
PHONESAT 2.4 05 May 10:12:03 10:15:07 55° 161° (SSE) 10:18:12 2401.200-2431.200
HO-68 05 May 10:17:52 10:25:00 74° 289° (WNW) 10:32:07 435.675
DOVE 4 05 May 10:37:35 10:39:33 12° 300° (WNW) 10:41:30 437.250
Oscar 11 05 May 10:38:30 10:42:41 48° 99° (E) 10:46:51 145.826/435.025
CUTE 1.7 + AOD 2 05 May 10:42:26 10:45:50 24° 291° (WNW) 10:49:15 437.475
HUMSAT D 05 May 10:44:32 10:44:51 10° 90° (E) 10:45:11 437.325/437.525
DELFI C3 05 May 10:46:35 10:50:00 27° 96° (E) 10:53:25 145.870
FUNcube-1 05 May 10:54:09 10:58:16 59° 100° (E) 11:02:20 145.935
UNISAT 6 05 May 10:58:25 11:03:00 61° 74° (ENE) 11:07:31 437.425
CINEMA 3 05 May 10:59:45 11:02:48 18° 295° (WNW) 11:05:47 145.822/145.860
DUCHIFAT 1 05 May 11:02:08 11:03:16 11° 63° (ENE) 11:04:25 145.980
COMPASS 1 05 May 11:02:51 11:06:20 26° 290° (WNW) 11:09:50 437.405
SEEDS 05 May 11:05:03 11:08:00 19° 292° (WNW) 11:10:57 437.485
QB50P2 05 May 11:05:12 11:07:29 14° 65° (ENE) 11:09:45 145.880/145.840
AIST 1 05 May 11:06:53 11:09:18 14° 71° (ENE) 11:11:42
POLYITAN 1 05 May 11:07:19 11:09:40 15° 65° (ENE) 11:12:00 437.675
POPSAT HIP 1 05 May 11:09:07 11:11:29 15° 65° (ENE) 11:13:53 437.405
QB50P1 05 May 11:11:48 11:14:25 16° 66° (ENE) 11:17:01 145.935-145.965
UWE-3 05 May 11:13:43 11:17:48 48° 286° (WNW) 11:21:48 435.000/436.395/437.385
TIGRISAT 05 May 11:14:54 11:19:33 87° 73° (ENE) 11:24:08 435.000
CUBEBUG 2 05 May 11:27:40 11:31:08 24° 291° (WNW) 11:34:32 437.445
AAUSAT CUBESAT 2 05 May 11:31:38 11:34:15 17° 293° (WNW) 11:36:52 437.432
BUGSAT 1 05 May 11:32:01 11:33:26 11° 63° (ENE) 11:34:51 437.445
GONETS M04 05 May 11:35:56 11:43:57 38° 73° (ENE) 11:51:53
ZACube-1 05 May 11:38:11 11:42:05 38° 288° (WNW) 11:45:55 437.345
ANTELSAT 05 May 11:40:44 11:45:12 46° 261° (W) 11:49:37 437.575/2403.000
Cosmos 2499 05 May 11:41:05 11:46:54 22° 69° (ENE) 11:52:57 435.465 / 435.565
NANOSAT C BR1 05 May 11:43:35 11:47:25 33° 71° (ENE) 11:51:16 145.865
PHONESAT 2.4 05 May 11:48:51 11:51:59 67° 357° (N) 11:55:07 2401.200-2431.200
ISS 05 May 12:01:27 12:03:15 14° 17° (NNE) 12:05:03 145.825
VELOX 1 05 May 12:07:06 12:09:07 13° 91° (E) 12:11:07 145.980
HO-68 05 May 12:08:13 12:11:30 14° 307° (NW) 12:14:47 435.675
Oscar 11 05 May 12:16:02 12:18:24 15° 295° (WNW) 12:20:46 145.826/435.025
HUMSAT D 05 May 12:16:50 12:20:50 57° 286° (WNW) 12:24:49 437.325/437.525
DELFI C3 05 May 12:21:41 12:24:43 21° 291° (WNW) 12:27:45 145.870
AO-85 05 May 12:24:04 12:29:10 42° 114° (ESE) 12:34:15 145.980
FUNcube-1 05 May 12:32:43 12:33:59 11° 297° (WNW) 12:35:15 145.935
DUCHIFAT 1 05 May 12:34:10 12:38:23 66° 258° (WSW) 12:42:39 145.980
AISAT 05 May 12:38:01 12:41:57 30° 97° (E) 12:45:52 437.250
UNISAT 6 05 May 12:38:11 12:40:03 12° 269° (W) 12:41:54 437.425
QB50P2 05 May 12:38:41 12:42:51 50° 260° (W) 12:47:02 145.880/145.840
POLYITAN 1 05 May 12:40:53 12:45:03 49° 260° (W) 12:49:13 437.675
POPSAT HIP 1 05 May 12:42:43 12:46:52 48° 260° (W) 12:51:02 437.405
AIST 1 05 May 12:42:56 12:47:10 46° 267° (W) 12:51:22
QB50P1 05 May 12:45:44 12:49:49 43° 261° (W) 12:53:56 145.935-145.965
50 SAT 05 May 13:00:53 13:04:32 64° 100° (E) 13:08:11 437.505
BUGSAT 1 05 May 13:04:03 13:08:15 63° 259° (W) 13:12:30 437.445
CUBEBUG 1 05 May 13:06:26 13:10:50 60° 101° (E) 13:15:12 437.445
ESTCUBE 1 05 May 13:07:49 13:12:22 89° 90° (E) 13:16:54 437.505/2401.250
NANOSAT C BR1 05 May 13:20:07 13:23:13 19° 266° (W) 13:26:19 145.865
PHONESAT 2.4 05 May 13:25:45 13:28:54 84° 198° (SSW) 13:32:04 2401.200-2431.200
DX 1 05 May 13:28:19 13:32:44 88° 281° (WNW) 13:37:06 434.975-435.025
UKube-1 05 May 13:29:25 13:33:47 78° 103° (ESE) 13:38:07 .
JAS-2 05 May 13:30:36 13:36:31 59° 71° (ENE) 13:43:16 435.910
GONETS M04 05 May 13:32:42 13:40:48 45° 272° (W) 13:48:52
Cosmos 2499 05 May 13:32:48 13:40:38 74° 266° (W) 13:49:04 435.465 / 435.565
ISS 05 May 13:37:02 13:40:16 57° 36° (NE) 13:43:29 145.825
VELOX 1 05 May 13:41:32 13:45:54 55° 287° (WNW) 13:50:15 145.980
SPROUT 05 May 13:53:55 13:58:14 78° 101° (E) 14:02:30 437.525
Oscar 19 05 May 14:01:44 14:06:51 66° 74° (ENE) 14:12:01 437.125/150
AO-85 05 May 14:04:58 14:09:47 31° 311° (NW) 14:14:33 145.980
AO-7 05 May 14:12:21 14:15:56 14° 47° (NE) 14:19:32 29.400- 29.500
AISAT 05 May 14:14:42 14:18:17 24° 292° (WNW) 14:21:50 437.250
TISAT 1 05 May 14:17:19 14:21:17 38° 98° (E) 14:25:11 437.305
Gurwin Techsat 1B 05 May 14:19:52 14:24:47 40° 70° (ENE) 14:29:43 435.225
BEESAT 05 May 14:40:57 14:43:02 13° 91° (E) 14:45:07 436.000
CUBEBUG 1 05 May 14:44:37 14:46:35 13° 297° (WNW) 14:48:33 437.445
PHONESAT 2.4 05 May 15:02:59 15:05:30 22° 209° (SSW) 15:08:02 2401.200-2431.200
ISS 05 May 15:14:39 15:16:22 14° 231° (SW) 15:18:06 145.825
JAS-2 05 May 15:17:37 15:22:08 21° 271° (W) 15:27:04 435.910
O/OREOS (USA 219) 05 May 15:19:14 15:23:50 84° 291° (WNW) 15:28:27 437.305
ITAMSAT 1 05 May 15:26:44 15:31:53 71° 74° (ENE) 15:37:03 435.822/435.867
Cosmos 2499 05 May 15:30:01 15:32:27 12° 283° (WNW) 15:34:56 435.465 / 435.565
SO-50 05 May 15:35:21 15:39:37 32° 50° (NE) 15:43:44 436.795
ITUPSAT 1 05 May 15:35:53 15:40:30 48° 100° (E) 15:45:07 437.325
DANDE 05 May 15:41:18 15:43:18 16° 85° (E) 15:45:35 436.750
SWISSCUBE 05 May 15:43:36 15:48:21 67° 102° (ESE) 15:53:05 437.505
Oscar 19 05 May 15:44:02 15:46:37 14° 269° (W) 15:49:13 437.125/150
TISAT 1 05 May 15:53:52 15:56:37 17° 294° (WNW) 15:59:22 437.305
PCSat 05 May 15:55:36 16:01:00 78° 117° (ESE) 16:06:27 145.827
AO-7 05 May 15:58:57 16:07:04 63° 67° (ENE) 16:15:13 29.400- 29.500
Gurwin Techsat 1B 05 May 16:00:35 16:04:49 24° 266° (W) 16:09:06 435.225
CUSAT 1 05 May 16:11:40 16:15:12 53° 284° (WNW) 16:19:53 437.405
BEESAT 05 May 16:16:30 16:21:13 62° 286° (WNW) 16:25:54 436.000
HORYU 2 05 May 16:21:45 16:24:25 16° 64° (ENE) 16:27:05 437.375
MOZHAYETS 4 05 May 16:22:41 16:24:25 12° 90° (E) 16:26:09
Cosmos 2491 05 May 16:47:02 16:51:54 16° 61° (ENE) 16:56:43 435.465 / 435.565
ITAMSAT 1 05 May 17:09:39 17:11:50 13° 270° (W) 17:14:01 435.822/435.867
ITUPSAT 1 05 May 17:14:48 17:17:57 18° 296° (WNW) 17:21:07 437.325
SO-50 05 May 17:16:00 17:20:00 28° 248° (WSW) 17:23:53 436.795
SWISSCUBE 05 May 17:23:19 17:25:35 13° 298° (WNW) 17:27:49 437.505
DANDE 05 May 17:23:48 17:25:59 17° 293° (WNW) 17:28:32 436.750
KKS-1 05 May 17:32:03 17:36:32 75° 285° (WNW) 17:40:58 437.445
BEESAT 3 05 May 17:32:40 17:34:53 15° 110° (ESE) 17:37:05 437.485
STARS 05 May 17:40:22 17:44:46 68° 102° (ESE) 17:49:08 437.465
PCSat 05 May 17:41:31 17:45:02 17° 315° (NW) 17:48:35 145.827
BEESAT 2 05 May 17:46:44 17:48:14 12° 108° (ESE) 17:49:43 435.950
BRITE-PL 05 May 17:49:57 17:52:43 15° 61° (ENE) 17:55:36 437.365/2234.400
NOAA 15 05 May 17:50:30 17:54:47 26° 66° (ENE) 17:59:06 137.62
AO-7 05 May 17:53:30 18:00:16 28° 264° (W) 18:07:06 29.400- 29.500
HORYU 2 05 May 17:56:15 18:00:34 48° 260° (W) 18:04:54 437.375
NOAA 18 05 May 17:56:51 18:01:27 28° 66° (ENE) 18:06:02 137.9125
MOZHAYETS 4 05 May 17:57:27 18:01:58 61° 286° (WNW) 18:06:28
LilacSat-2 05 May 17:57:29 17:58:38 11° 65° (ENE) 17:59:48 437.200
Cubesat XI-IV 05 May 18:03:53 18:07:59 23° 65° (ENE) 18:12:05 437.490
CUBESAT XI-V 05 May 18:14:33 18:18:11 22° 94° (E) 18:21:48 437.345
M-CUBED/EXP-1 PRIME 05 May 18:24:35 18:27:17 15° 60° (ENE) 18:29:56 437.505
